GFSNW_925_temp_138.txt.gz
Temp
5 9 9 9 8 6 7 6 5 5 6 6 6 9 13 14 16 17 18 19 17 18 18 17 16 17 17 18 17 16 17 17 17 18 20 20 19 17 17 14 15 15 13 10
4 4 4 5 6 6 5 4 5 5 7 8 7 11 12 14 15 16 17 16 17 17 17 16 16 18 18 17 16 16 16 15 15 17 18 18 17 17 16 16 15 13 12 11
3 3 2 2 3 4 5 5 5 4 5 6 10 10 12 12 15 17 16 17 18 18 17 18 17 16 16 15 16 12 15 16 15 14 14 16 14 15 15 15 13 12 10 9
4 3 3 3 4 4 5 7 8 7 6 6 10 11 12 14 15 17 17 16 17 17 16 16 16 15 14 15 12 14 14 15 16 17 17 15 14 15 14 13 13 12 10 9
4 4 3 2 4 4 5 5 8 9 9 10 11 10 13 15 15 15 15 15 17 17 16 16 16 15 14 14 14 14 14 14 16 15 17 13 13 15 15 13 12 11 9 8
3 3 3 3 3 4 4 6 11 12 10 11 10 10 11 13 14 14 15 16 16 15 16 16 18 16 16 16 14 14 15 14 15 15 16 12 11 12 12 11 10 10 10 8
2 2 2 3 3 3 4 6 8 8 9 10 10 12 14 14 14 13 15 16 15 15 15 16 15 15 16 15 15 16 15 15 15 13 13 12 9 11 11 8 8 7 8 7
3 2 3 3 4 4 4 6 7 8 8 9 11 13 13 13 14 14 14 15 14 14 14 12 12 12 13 14 15 15 16 15 14 14 14 11 12 11 10 10 9 9 8 9
3 3 3 3 4 4 5 6 6 8 8 8 11 11 12 11 13 13 11 13 13 13 13 12 13 12 13 13 14 16 15 15 14 15 14 13 12 13 12 11 9 9 9 7
4 4 4 4 4 5 5 7 7 7 11 11 13 12 11 14 13 11 11 11 12 13 12 13 14 14 16 13 12 12 12 13 12 14 14 11 13 12 11 9 7 8 7 6
4 4 4 5 5 6 5 8 8 10 10 10 14 15 14 14 14 11 11 12 12 11 12 13 15 14 16 15 14 13 13 13 12 14 14 11 12 11 10 7 7 7 6 5
4 5 4 6 6 6 6 10 10 10 10 9 9 9 10 12 14 13 12 13 12 13 13 15 15 14 15 14 12 15 12 14 12 12 9 10 9 8 9 9 7 6 6 6
4 4 5 5 6 6 7 10 10 10 10 11 11 10 10 11 11 13 12 13 13 12 11 14 13 14 15 14 13 13 12 13 11 10 11 10 8 8 8 7 7 7 7 7
4 4 5 5 6 7 8 9 9 11 12 10 9 10 11 11 11 11 12 12 12 13 13 13 13 13 14 14 13 13 13 12 10 9 9 8 8 7 6 5 5 6 6 5
4 4 5 6 7 7 8 8 9 9 12 9 9 11 11 11 11 11 11 12 12 13 11 11 13 13 14 14 14 12 13 10 9 9 8 8 7 6 6 5 5 5 5 4
4 5 5 6 6 7 9 7 9 9 12 11 8 10 11 11 11 11 12 12 13 13 12 10 11 12 12 12 12 12 11 10 10 7 8 7 6 6 6 5 5 4 4 3
4 5 5 6 7 8 8 7 7 8 10 10 8 8 9 10 11 11 11 12 12 13 12 12 12 11 11 12 12 11 9 9 8 8 6 5 5 3 4 4 3 3 2 1
4 5 6 6 7 7 7 6 8 9 11 12 8 6 9 10 9 9 11 11 12 11 11 12 12 11 12 11 11 9 9 8 6 6 7 5 4 4 3 3 3 3 2 1
5 5 5 6 6 8 7 7 8 9 10 10 9 8 7 10 9 10 10 11 8 10 9 11 11 11 9 10 10 9 9 7 6 6 5 4 3 3 3 3 3 3 2 1
5 5 4 3 5 5 6 8 7 9 11 11 10 10 8 10 9 9 8 8 8 7 9 10 9 10 9 11 11 10 9 8 7 5 4 4 3 3 3 3 3 3 2 0
5 3 3 4 5 7 7 6 8 9 9 11 10 10 8 10 9 7 9 7 8 8 9 8 8 9 9 11 10 10 9 8 8 7 6 6 5 4 3 3 2 2 0 -1
5 4 4 5 7 7 6 7 8 10 8 9 9 9 9 9 9 8 8 7 7 8 9 7 9 9 9 10 9 8 7 8 7 7 6 6 5 4 3 2 1 0 -2 -6
4 5 3 6 6 6 7 6 8 7 7 7 8 7 8 9 8 7 7 6 7 9 7 8 10 9 9 9 8 7 7 6 5 5 5 4 2 2 1 -3 -4 -5 -7 -8
5 5 4 5 5 7 5 6 7 6 7 7 8 7 8 7 6 6 7 8 9 7 7 9 9 8 8 7 6 6 5 3 2 -0 -2 -3 -4 -5 -4 -5 -6 -7 -9 -9
4 6 4 4 4 4 3 4 5 5 7 8 7 8 9 7 5 6 7 6 7 8 9 9 7 7 7 5 5 4 -0 -2 -2 -3 -5 -6 -6 -6 -7 -7 -7 -8 -9 -9
4 4 4 4 4 3 3 3 3 4 5 7 8 7 7 6 7 7 7 8 9 9 8 7 6 5 4 3 2 0 -1 -2 -2 -3 -5 -7 -7 -7 -8 -8 -8 -9 -9 -9
5 3 2 3 4 3 3 4 4 4 5 5 7 7 7 8 8 8 9 8 7 7 7 7 6 3 2 1 -1 -2 -2 -2 -3 -4 -6 -7 -7 -7 -8 -8 -8 -9 -9 -9

GFSNW_925_temp_141.txt.gz
Temp
4 4 4 4 8 10 7 7 7 6 5 6 7 8 11 13 14 15 16 13 14 15 15 16 15 15 16 17 15 15 16 15 14 16 18 18 17 15 15 9 13 11 10 8
3 4 3 4 4 5 5 7 6 5 7 8 7 9 10 13 14 14 14 15 15 15 16 14 16 16 17 15 15 14 15 13 11 15 16 17 17 15 15 13 12 11 8 6
4 3 4 4 4 4 4 3 5 4 6 6 9 9 10 11 14 14 15 15 16 15 14 15 14 14 15 15 13 13 14 14 12 9 11 13 14 15 15 13 10 8 6 6
4 3 4 4 5 5 5 4 5 5 6 5 8 10 10 12 12 14 15 14 14 13 13 13 13 14 13 14 12 13 13 12 15 15 15 14 15 15 12 12 12 11 9 7
4 3 3 4 4 5 5 4 5 6 7 6 8 10 10 12 13 13 14 13 14 13 12 13 13 13 12 12 12 12 13 12 14 14 16 12 13 14 13 12 12 10 8 8
4 3 3 4 3 4 4 5 8 8 7 7 8 9 11 12 13 14 15 14 13 14 15 15 15 13 13 13 11 11 11 11 12 12 14 11 9 10 10 9 9 9 8 7
4 3 3 3 3 3 4 5 6 7 7 8 8 10 12 13 13 12 14 14 13 13 14 14 14 14 14 13 13 13 12 12 12 11 12 10 8 9 10 6 6 5 6 6
3 3 3 3 3 3 4 5 6 7 8 9 10 11 11 11 13 12 13 14 12 12 12 11 11 11 12 13 13 13 14 13 10 11 11 10 11 10 8 8 6 7 7 8
3 3 3 3 4 3 4 6 6 6 7 8 10 10 10 8 9 10 10 12 11 12 10 9 10 9 11 11 13 15 14 13 11 11 12 10 10 11 11 10 6 9 8 7
3 3 3 4 4 4 4 4 6 7 6 8 9 8 8 11 8 7 9 10 11 11 8 9 10 11 13 11 11 11 11 10 10 10 10 10 11 11 10 8 6 7 5 5
4 4 4 4 4 4 4 5 6 7 7 8 11 11 10 11 9 8 9 9 9 8 9 10 10 11 11 12 12 10 10 9 8 9 10 8 11 10 8 4 6 5 4 5
4 4 4 4 4 4 4 4 6 7 7 7 9 10 11 11 12 9 9 9 10 9 8 9 10 10 9 10 9 12 9 11 8 7 6 7 7 5 6 5 5 6 5 5
4 4 4 4 5 6 5 5 8 8 6 6 7 8 11 12 13 13 8 9 11 10 9 9 10 11 8 9 10 9 11 11 7 7 7 6 6 6 6 5 5 5 5 5
4 5 5 5 6 6 6 7 8 9 7 5 7 11 11 11 12 13 12 11 11 10 9 9 10 9 10 10 10 9 10 9 6 6 7 6 5 5 5 4 4 4 4 3
4 4 5 6 6 7 7 8 9 9 7 6 7 10 11 11 11 11 12 11 9 8 7 6 7 8 9 10 9 7 10 7 4 4 5 4 4 5 5 3 3 3 3 2
4 4 5 6 6 7 8 3 9 9 11 6 5 8 9 11 11 10 10 10 9 8 7 5 7 9 8 6 6 9 8 7 6 4 5 4 4 5 5 5 4 3 2 2
4 5 6 7 8 8 6 5 7 9 11 5 5 6 8 10 10 8 8 9 8 8 8 8 8 8 8 6 6 7 6 6 5 5 5 3 4 3 4 2 2 2 1 1
5 5 6 6 7 8 7 7 8 9 10 8 4 5 6 9 7 6 7 7 7 7 8 8 7 7 7 6 7 7 6 5 4 6 5 3 3 4 3 2 1 0 -1 -1
5 6 6 7 6 5 7 8 10 10 9 5 4 5 4 8 7 6 6 6 4 6 5 7 7 6 5 7 7 6 6 5 6 6 4 3 2 2 1 1 1 -0 -1 -2
5 6 4 2 5 6 7 9 4 5 7 7 6 6 4 6 3 5 4 5 3 4 6 6 4 5 7 8 7 7 5 5 6 3 3 2 1 0 1 1 1 0 -0 -1
5 1 2 5 5 7 4 4 4 5 6 7 8 6 5 7 4 3 4 2 4 4 5 5 4 5 5 7 6 6 5 5 4 4 3 2 2 1 0 0 1 -0 -1 -3
5 4 4 5 5 4 5 4 5 6 6 5 5 5 6 5 5 3 3 5 3 6 5 3 5 5 6 6 5 4 3 4 4 4 3 3 2 2 1 0 -1 -3 -4 -4
5 4 2 3 2 2 4 3 5 4 4 4 4 3 4 5 4 2 2 3 3 5 2 4 5 4 5 5 4 3 4 4 4 2 3 3 2 2 1 -2 -3 -4 -5 -6
2 3 1 1 1 2 4 4 3 3 3 3 3 3 4 3 3 2 2 3 4 3 3 5 3 4 3 2 2 2 1 0 -2 -3 -2 -2 -2 -3 -2 -1 -3 -4 -7 -8
2 3 2 1 2 1 2 2 2 2 2 2 3 4 5 3 2 5 3 3 4 4 4 5 1 3 2 2 2 -0 -2 -3 -5 -4 -5 -5 -5 -5 -6 -5 -4 -5 -7 -8
2 2 2 2 1 1 3 2 1 1 2 2 3 5 4 4 3 5 4 5 4 4 4 3 1 0 -0 -0 -2 -3 -3 -3 -4 -4 -5 -5 -5 -6 -7 -7 -6 -6 -7 -8
3 2 2 2 1 2 2 2 1 3 3 4 4 5 6 5 4 5 4 3 4 4 2 -0 1 -0 -2 -3 -4 -4 -3 -3 -4 -5 -5 -6 -6 -6 -8 -9 -8 -8 -8 -8

GFSNW_925_temp_147.txt.gz
Temp
5 4 4 5 5 5 5 5 5 6 6 6 6 6 8 10 10 11 11 11 11 11 12 12 12 12 14 15 14 15 14 13 13 15 16 17 16 14 13 12 12 10 7 6
5 4 4 5 6 6 6 5 5 5 6 5 6 7 8 9 10 10 10 11 11 12 11 10 12 13 15 13 14 13 13 11 11 13 15 15 15 14 13 11 11 11 8 6
4 4 4 5 6 6 6 5 6 6 6 6 7 7 8 8 9 9 11 11 11 11 10 11 11 13 14 13 13 14 13 12 12 12 13 13 13 13 13 13 11 9 7 4
4 4 5 4 5 5 5 4 5 6 6 6 6 8 8 8 8 9 10 10 11 10 10 10 10 11 12 12 13 13 12 11 11 13 14 13 13 14 12 12 11 11 8 7
4 3 4 4 4 4 4 3 4 4 5 6 6 7 8 8 9 9 9 9 10 10 10 11 10 11 10 11 11 11 12 10 11 11 14 13 12 13 12 11 10 8 7 7
4 3 4 4 4 4 4 4 4 5 5 6 6 7 7 8 9 9 10 9 10 10 11 11 12 11 10 11 10 9 10 9 9 10 13 11 10 10 11 10 9 8 8 7
3 3 3 3 4 5 5 5 5 5 5 6 6 7 8 8 9 8 10 10 10 11 10 10 11 11 11 12 12 11 8 8 8 10 11 10 9 9 9 6 6 6 5 5
3 3 3 3 3 4 4 4 5 6 5 6 7 8 7 8 9 10 10 11 11 11 10 8 8 8 8 10 10 10 10 10 9 10 10 9 9 8 8 9 7 6 5 3
3 3 4 4 4 3 3 4 4 5 6 5 8 7 8 7 8 9 9 11 9 11 9 7 8 9 9 9 11 11 11 11 10 9 11 10 10 9 9 10 8 6 5 3
4 4 3 3 3 3 3 4 4 5 6 6 8 7 7 9 7 6 9 10 11 10 7 8 8 8 11 10 9 10 9 8 10 9 9 9 10 9 10 9 8 6 4 3
4 3 3 3 3 3 3 4 5 5 5 7 8 9 8 8 8 7 8 8 7 6 7 8 9 9 9 10 11 10 10 9 8 9 9 10 10 9 9 5 3 4 3 2
4 3 3 3 3 4 4 3 5 6 5 6 7 9 10 10 10 8 8 8 8 7 7 7 8 9 8 9 9 11 9 9 8 8 7 5 5 7 4 4 3 3 2 2
4 3 4 4 3 4 3 3 4 5 5 6 6 7 9 10 10 11 7 7 9 9 8 8 8 9 6 8 9 9 8 8 6 7 6 4 4 3 3 4 3 2 2 2
4 4 4 4 4 4 3 3 4 5 5 5 6 8 8 9 10 9 11 9 8 7 7 8 8 8 8 8 9 8 8 7 5 4 4 4 4 3 3 2 2 2 2 1
4 4 4 4 3 3 4 4 5 6 6 5 5 7 8 10 11 11 11 10 7 6 7 5 7 6 7 7 7 6 7 5 5 4 4 4 4 2 2 2 1 1 1 0
4 4 4 3 3 3 4 4 5 6 7 5 5 6 6 8 9 9 8 7 6 6 6 5 5 7 7 7 5 7 6 6 6 4 4 3 2 2 2 1 1 1 0 -0
4 4 4 4 4 4 4 5 6 8 8 5 4 5 6 7 7 5 6 6 5 6 5 6 6 6 6 5 6 7 4 4 4 4 3 2 2 0 1 1 1 1 -1 -1
4 4 4 4 4 5 5 6 6 8 7 6 4 5 6 7 5 6 4 5 5 4 4 5 6 6 5 5 5 4 3 3 3 3 3 2 1 0 -0 -0 -1 -1 -2 -3
4 4 4 4 4 4 7 7 8 8 7 3 2 4 4 5 4 4 4 3 3 3 4 5 5 4 5 6 4 3 3 4 3 2 2 1 1 -1 -1 -1 -1 -2 -3 -3
4 4 4 1 4 5 7 8 4 3 4 4 3 3 5 5 2 3 3 2 2 3 4 3 2 3 5 5 4 4 3 3 2 2 1 1 -0 -1 -1 -1 -1 -1 -2 -3
5 1 1 4 5 5 2 2 3 2 4 4 4 4 4 3 3 2 1 1 2 3 4 4 2 4 4 3 3 3 2 3 3 3 2 2 1 0 -1 -1 -2 -2 -3 -3
4 4 4 4 3 3 3 0 3 4 5 3 4 4 4 3 1 3 1 2 2 5 1 1 2 3 4 3 2 1 1 1 1 2 1 1 1 0 -1 -1 -2 -2 -2 -3
5 3 2 2 1 1 2 2 3 2 2 3 3 3 3 3 2 0 0 1 1 2 -1 1 3 2 3 2 2 1 1 1 1 -0 0 1 -0 0 -0 -2 -1 -1 -2 -2
1 1 0 -0 1 2 3 3 2 1 1 2 1 1 2 0 2 0 2 4 2 -1 -0 3 1 3 2 1 1 1 0 -1 -1 -2 -1 -1 -1 -1 0 0 -1 -2 -3 -3
1 1 0 -1 1 2 1 0 2 2 -0 1 2 2 3 1 1 1 2 3 2 2 2 0 -0 2 1 1 1 -0 -1 -3 -3 -2 -2 -2 -1 -2 -2 -1 -1 -1 -2 -4
1 1 0 0 1 1 -1 1 2 2 1 -1 1 2 1 2 1 3 2 4 2 1 3 2 -2 -1 -1 -1 -2 -3 -3 -2 -3 -3 -2 -2 -3 -3 -3 -5 -4 -3 -2 -4
1 1 -0 -1 1 1 1 1 2 1 3 0 1 3 4 2 2 4 3 2 4 2 1 -0 -2 -1 -2 -3 -4 -4 -3 -4 -4 -4 -3 -4 -5 -4 -5 -8 -6 -5 -4 -4

GFSNW_925_temp_150.txt.gz
Temp
6 5 5 4 4 5 4 5 4 7 7 6 6 7 7 9 10 10 10 10 11 10 11 11 11 10 13 13 13 13 13 12 11 13 16 15 15 14 13 13 12 10 10 8
6 5 5 5 5 4 5 5 5 5 6 6 6 8 8 8 8 9 9 9 10 10 10 10 10 11 13 12 12 13 13 10 11 12 14 15 14 14 13 11 11 10 10 9
5 5 5 5 5 5 5 5 5 5 5 6 6 7 7 7 8 8 8 9 9 9 9 10 9 11 13 12 12 11 13 10 10 11 11 12 13 13 13 12 12 11 9 6
5 5 4 5 5 5 5 5 5 5 5 5 6 6 6 6 7 8 8 8 8 8 8 9 9 10 11 12 12 12 12 10 11 12 13 12 11 12 13 11 12 12 12 8
5 5 5 5 5 4 5 3 5 4 5 7 6 6 7 6 7 8 9 8 9 9 8 9 9 10 9 10 12 11 10 9 10 11 13 13 11 12 13 13 11 9 8 9
5 4 5 5 5 4 4 4 4 4 5 5 6 6 7 7 8 8 10 9 8 7 9 10 9 9 9 10 10 9 10 9 9 10 11 9 9 9 10 11 10 9 9 9
5 4 4 5 5 4 5 5 5 4 6 5 6 7 7 7 8 7 8 9 7 8 10 10 10 9 10 10 10 10 9 9 8 10 9 9 9 9 10 10 8 7 6 5
5 4 4 4 5 4 4 5 4 5 6 5 5 6 7 8 8 8 8 9 9 9 9 8 8 7 9 9 10 9 9 8 9 10 10 9 10 9 9 10 10 6 5 3
4 4 4 4 4 4 4 4 5 5 6 6 7 7 7 7 6 7 7 9 9 9 7 7 8 8 9 8 9 10 9 8 8 9 9 10 11 9 9 10 9 6 4 2
4 4 4 4 4 4 3 4 4 4 5 6 7 7 7 7 7 7 7 8 8 8 6 8 8 9 9 9 9 8 8 8 9 9 9 10 10 9 9 10 9 5 4 3
4 4 4 4 4 4 3 4 4 4 5 6 7 8 8 8 7 6 7 8 7 6 7 8 7 7 9 9 10 8 9 9 9 9 9 10 9 9 10 6 3 4 3 2
4 4 4 4 3 4 3 4 4 4 5 6 6 7 9 9 10 7 6 8 7 7 7 6 8 8 8 9 9 10 9 10 8 9 9 6 5 7 4 4 3 3 2 1
4 4 4 3 3 4 3 4 4 4 5 4 5 6 8 8 9 10 7 7 8 8 8 7 7 9 5 8 8 8 9 8 7 7 6 5 5 3 3 3 2 2 2 0
4 3 3 3 3 3 3 3 4 4 5 5 6 7 7 8 9 9 9 7 7 7 7 7 8 8 7 7 8 8 8 7 5 4 4 4 4 4 2 2 2 1 1 0
4 4 4 3 3 3 3 3 4 4 5 5 6 6 7 8 9 8 8 7 6 6 5 5 6 6 7 6 7 5 6 5 5 6 5 5 4 2 2 2 1 1 0 -1
4 4 4 4 3 3 3 4 4 4 5 5 5 4 5 6 8 7 7 7 6 5 6 5 5 6 6 5 6 7 6 5 5 4 4 3 2 1 2 1 1 0 -0 -1
4 4 4 3 3 2 3 3 4 5 5 4 4 5 5 6 7 5 5 6 5 6 5 5 5 5 6 6 6 7 5 5 3 2 2 1 2 0 0 0 0 0 -1 -2
4 3 3 3 3 3 3 4 4 5 6 6 5 5 5 7 5 6 3 5 5 4 5 4 5 4 5 5 7 4 3 2 2 2 2 2 0 0 -1 -1 -1 -2 -3 -3
3 3 3 3 3 4 4 5 6 7 6 4 3 5 5 5 4 4 4 3 4 3 5 5 5 4 5 7 5 3 2 3 2 1 1 1 1 -0 -1 -1 -2 -2 -3 -3
2 3 2 2 3 4 5 4 3 3 4 4 4 3 5 4 2 3 3 3 3 4 3 2 3 4 5 5 4 3 2 2 1 1 1 1 -0 -1 -1 -1 -1 -1 -2 -3
3 1 1 3 4 4 2 2 4 3 4 3 4 4 4 3 4 2 1 1 2 3 4 4 3 4 3 3 2 2 1 2 2 2 1 1 1 -0 -1 -1 -2 -2 -3 -3
3 2 3 3 3 1 3 2 3 4 5 2 3 3 3 3 1 3 1 2 1 4 1 2 2 2 3 2 2 1 0 0 1 1 0 0 0 -0 -1 -2 -2 -3 -3 -3
4 2 1 2 1 3 2 2 3 5 4 2 2 2 2 2 1 -0 1 1 1 1 -1 1 1 1 2 1 1 0 0 1 0 -0 0 -0 -1 -0 -1 -2 -1 -2 -2 -3
1 2 2 1 0 2 2 3 3 2 1 0 1 1 2 0 2 -1 1 4 2 -1 -1 2 -0 1 1 1 0 0 -0 -2 -2 -2 -2 -2 -2 -2 -0 0 -1 -2 -3 -3
0 1 0 -0 1 1 1 1 2 2 -1 -0 2 2 3 1 2 1 3 4 2 1 1 2 2 -1 1 0 0 -0 -2 -3 -4 -3 -3 -3 -2 -3 -2 -1 -1 -1 -2 -3
1 1 0 1 1 1 1 2 3 2 1 -1 1 2 2 1 1 2 1 4 1 0 3 1 -0 -1 -3 -2 -3 -4 -2 -2 -3 -2 -2 -2 -3 -3 -2 -3 -3 -2 -2 -3
1 1 -0 0 1 1 1 2 2 1 2 1 2 3 3 2 2 3 3 1 3 1 1 -0 -2 -3 -3 -3 -4 -4 -3 -3 -3 -3 -3 -3 -4 -3 -4 -6 -5 -5 -4 -4